Weather History for KHIF - December, 2012

Change the Weather History Date:

Friday, December 7, 2012

  Actual Average Record
Temperature  
Mean Temperature 36 °F -  
Max Temperature 41 °F 36 °F 53 °F (2014)
Min Temperature 30 °F 23 °F 5 °F (2005)
Degree Days  
Heating Degree Days 30    
Moisture  
Dew Point 30 °F    
Average Humidity 79    
Maximum Humidity 100    
Minimum Humidity 45    
Precipitation  
Precipitation 0.00 in - - ()
Sea Level Pressure  
Sea Level Pressure 30.04 in    
Wind  
Wind Speed 6 mph (WNW)    
Max Wind Speed 15 mph    
Max Gust Speed 20 mph    
Visibility 7 miles    
Events Fog    
Averages and records for this station are not official NWS values.
T = Trace of Precipitation, MM = Missing Value Source: NWS Daily Summary

Daily Weather History Graph

Daily Weather History Graph

Search for Another Location

Airport or City:

Trip Planner

Search our weather history database for the weather conditions in past years. The results will help you decide how hot, cold, wet, or windy it might be!

Date:

Astronomy

Dec. 07, 2012 Rise Set
Actual Time 7:40 AM MST 4:59 PM MST
Civil Twilight 7:09 AM MST 5:30 PM MST
Nautical Twilight 6:34 AM MST 6:04 PM MST
Astronomical Twilight 6:01 AM MST 6:37 PM MST
Moon 1:00 AM MST (12/7) 1:00 PM MST (12/7)
Length of Visible Light 10h 20m
Length of Day
9h 18m
Last Quarter, 38% of the Moon is Illuminated
Dec 7
Last Quarter
Dec 13
New
Dec 19
First Quarter
Dec 28
Full
Jan 4
Last Quarter

Hourly Weather History & Observations

Time (MST) Temp. Windchill Dew Point Humidity Pressure Visibility Wind Dir Wind Speed Gust Speed Precip Events Conditions
12:03 AM 39.2 °F 35.0 °F 37.4 °F 93% 30.01 in 5.0 mi NNW 5.8 mph - N/A   Mostly Cloudy
12:13 AM 39.2 °F 35.0 °F 37.4 °F 93% 30.01 in 10.0 mi NNW 5.8 mph - N/A   Overcast
12:18 AM 39.2 °F 35.9 °F 37.4 °F 93% 30.01 in 10.0 mi NNW 4.6 mph - N/A   Mostly Cloudy
12:28 AM 37.4 °F 33.8 °F 37.4 °F 100% 30.02 in 10.0 mi NW 4.6 mph - N/A   Mostly Cloudy
12:48 AM 37.4 °F 34.9 °F 37.4 °F 100% 30.01 in 9.0 mi NW 3.5 mph - N/A   Mostly Cloudy
12:58 AM 37.8 °F 34.2 °F 37.6 °F 99% 30.01 in 7.0 mi NNW 4.6 mph - N/A   Scattered Clouds
1:13 AM 37.4 °F 32.8 °F 37.4 °F 100% 30.02 in 4.0 mi NW 5.8 mph - N/A   Scattered Clouds
1:18 AM 37.4 °F 32.8 °F 37.4 °F 100% 30.02 in 2.5 mi NW 5.8 mph - N/A   Mostly Cloudy
1:23 AM 37.4 °F 33.8 °F 37.4 °F 100% 30.03 in 1.0 mi NW 4.6 mph - N/A   Mostly Cloudy
1:26 AM 37.4 °F 32.8 °F 37.4 °F 100% 30.03 in 0.5 mi NW 5.8 mph - N/A Fog Fog
1:31 AM 37.4 °F 32.8 °F 37.4 °F 100% 30.03 in 0.2 mi NW 5.8 mph - N/A Fog Fog
1:46 AM 37.4 °F 31.4 °F 37.4 °F 100% 30.03 in 0.2 mi NW 8.1 mph - N/A Fog Fog
1:51 AM 37.4 °F 32.1 °F 37.4 °F 100% 30.04 in 0.5 mi NNW 6.9 mph - N/A Fog Fog
1:56 AM 37.4 °F 32.8 °F 35.6 °F 93% 30.04 in 1.0 mi NW 5.8 mph - N/A   Scattered Clouds
1:58 AM 37.4 °F 32.8 °F 35.6 °F 93% 30.03 in 1.0 mi NW 5.8 mph - N/A   Scattered Clouds
2:03 AM 35.6 °F 31.7 °F 35.6 °F 100% 30.03 in 0.5 mi NW 4.6 mph - N/A Fog Fog
2:08 AM 35.6 °F 31.7 °F 35.6 °F 100% 30.03 in 0.2 mi NW 4.6 mph - N/A Fog Fog
2:18 AM 35.6 °F 30.7 °F 35.6 °F 100% 30.04 in 0.5 mi NNW 5.8 mph - N/A Fog Fog
2:23 AM 35.6 °F 30.7 °F 35.6 °F 100% 30.04 in 1.2 mi NNW 5.8 mph - N/A   Scattered Clouds
2:28 AM 35.6 °F 31.7 °F 35.6 °F 100% 30.04 in 1.8 mi NNW 4.6 mph - N/A   Scattered Clouds
2:33 AM 35.6 °F 31.7 °F 35.6 °F 100% 30.04 in 0.8 mi NNW 4.6 mph - N/A   Mist
2:38 AM 35.6 °F 30.7 °F 35.6 °F 100% 30.04 in 0.5 mi NNW 5.8 mph - N/A Fog Fog
2:48 AM 35.6 °F 30.7 °F 35.6 °F 100% 30.05 in 0.8 mi NW 5.8 mph - N/A   Mist
2:53 AM 35.6 °F 30.7 °F 35.6 °F 100% 30.05 in 0.8 mi NW 5.8 mph - N/A   Mist
2:58 AM 35.6 °F 30.7 °F 33.8 °F 93% 30.03 in 1.5 mi NW 5.8 mph - N/A   Partly Cloudy
3:03 AM 35.6 °F 30.7 °F 33.8 °F 93% 30.05 in 6.0 mi NW 5.8 mph - N/A   Clear
3:08 AM 33.8 °F 28.6 °F 33.8 °F 100% 30.05 in 10.0 mi NW 5.8 mph - N/A   Clear
3:58 AM 34.5 °F 31.6 °F 34.0 °F 98% 30.04 in 10.0 mi NNW 3.5 mph - N/A   Clear
4:58 AM 35.2 °F - 26.8 °F 71% 30.04 in 10.0 mi NNW 2.3 mph - N/A   Clear
5:58 AM 34.9 °F - 27.0 °F 73% 30.04 in 10.0 mi NW 2.3 mph - N/A   Clear
6:58 AM 30.9 °F - 27.3 °F 86% 30.07 in 10.0 mi WSW 1.2 mph - N/A   Clear
7:58 AM 30.9 °F - 28.8 °F 92% 30.07 in 6.0 mi SSE 1.2 mph - N/A   Clear
8:58 AM 32.9 °F - 28.6 °F 84% 30.10 in 7.0 mi Calm Calm - N/A   Scattered Clouds
9:58 AM 35.8 °F - 27.9 °F 73% 30.12 in 10.0 mi NNE 1.2 mph - N/A   Scattered Clouds
10:58 AM 39.6 °F 35.4 °F 31.8 °F 74% 30.10 in 10.0 mi South 5.8 mph - N/A   Partly Cloudy
11:08 AM 39.2 °F 35.9 °F 32.0 °F 75% 30.11 in 10.0 mi SSW 4.6 mph - N/A   Mostly Cloudy
11:13 AM 39.2 °F 35.9 °F 32.0 °F 75% 30.11 in 10.0 mi South 4.6 mph - N/A   Scattered Clouds
11:23 AM 39.2 °F 33.0 °F 32.0 °F 75% 30.10 in 10.0 mi South 9.2 mph - N/A   Partly Cloudy
11:58 AM 39.0 °F 32.3 °F 30.6 °F 72% 30.08 in 10.0 mi SSW 10.4 mph - N/A   Scattered Clouds
12:58 PM 40.8 °F 33.7 °F 25.2 °F 54% 30.06 in 10.0 mi SSW 12.7 mph 19.6 mph N/A   Scattered Clouds
1:58 PM 41.2 °F 35.0 °F 23.5 °F 50% 30.05 in 10.0 mi SW 10.4 mph - N/A   Clear
2:58 PM 41.2 °F 35.5 °F 22.8 °F 48% 30.04 in 10.0 mi WSW 9.2 mph - N/A   Scattered Clouds
3:08 PM 41.0 °F 36.4 °F 23.0 °F 49% 30.05 in 10.0 mi SW 6.9 mph - N/A   Mostly Cloudy
3:18 PM 41.0 °F 38.0 °F 23.0 °F 49% 30.05 in 10.0 mi WSW 4.6 mph - N/A   Scattered Clouds
3:23 PM 41.0 °F 36.4 °F 23.0 °F 49% 30.05 in 10.0 mi Variable 6.9 mph - N/A   Mostly Cloudy
3:33 PM 41.0 °F 35.8 °F 21.2 °F 45% 30.05 in 10.0 mi SW 8.1 mph - N/A   Partly Cloudy
3:58 PM 39.7 °F 36.5 °F 22.5 °F 50% 30.05 in 10.0 mi WSW 4.6 mph - N/A   Clear
4:58 PM 36.9 °F 34.3 °F 22.3 °F 56% 30.04 in 10.0 mi South 3.5 mph - N/A   Clear
5:58 PM 35.2 °F 31.2 °F 21.6 °F 58% 30.03 in 10.0 mi ESE 4.6 mph - N/A   Partly Cloudy
6:13 PM 35.6 °F 30.7 °F 21.2 °F 56% 30.02 in 10.0 mi ESE 5.8 mph - N/A   Mostly Cloudy
6:48 PM 35.6 °F 30.7 °F 21.2 °F 56% 30.01 in 10.0 mi SE 5.8 mph - N/A   Scattered Clouds
6:58 PM 35.8 °F 30.9 °F 21.6 °F 56% 30.02 in 10.0 mi SE 5.8 mph - N/A   Partly Cloudy
7:58 PM 37.0 °F 30.4 °F 22.1 °F 55% 29.99 in 10.0 mi South 9.2 mph - N/A   Overcast
8:33 PM 37.4 °F 29.8 °F 23.0 °F 56% 29.98 in 10.0 mi South 11.5 mph - N/A   Overcast
8:58 PM 36.5 °F 28.7 °F 22.5 °F 57% 29.98 in 10.0 mi SSW 11.5 mph - N/A   Overcast
9:33 PM 35.6 °F 27.1 °F 23.0 °F 60% 29.97 in 10.0 mi South 12.7 mph - N/A   Overcast
9:58 PM 37.4 °F 28.5 °F 21.6 °F 53% 29.96 in 10.0 mi South 15.0 mph - N/A   Overcast
10:58 PM 37.2 °F 28.7 °F 22.5 °F 55% 29.94 in 10.0 mi SSE 13.8 mph - N/A   Overcast
11:58 PM 37.9 °F 29.2 °F 21.4 °F 51% 29.92 in 10.0 mi South 15.0 mph - N/A   Overcast